sat.trackr.live / text

‹ back to catalog

STARLINK-3044

NORAD 49438 · 2021-104AG

PAYLOAD ACTIVE UNKNOWN

§ Identity

Operator
Country
US
Launch date
2021-11-13
Launch site
AFETR
Launch vehicle
Mass (kg)
RCS (m²)

Purposes: comms

External: N2YO · Heavens-Above · Gunter

§ Orbital elements

Epoch: 2026-09-12T19:02:45.825216Z

Period
93.79 min
Inclination
53.1614°
Eccentricity
0.0001084
Mean motion
15.35401316 rev/d
Perigee alt
459.0 km
Apogee alt
460.5 km
Semi-major
6,837.9 km
B*
3.3665e-5
RAAN
85.4907°
Arg perigee
76.5031°
Mean anomaly
283.6093°
Rev number
26,720

§ Raw data

STARLINK-30441 49438U 21104AG  26255.79358594  .00000794  00000+0  33665-4 0  99922 49438  53.1614  85.4907 0001084  76.5031 283.6093 15.35401316267205

JSON: /api/v1/satellites/49438 · /tle

For live sub-satellite position, see the globe view (requires WebGL).

§ Visibility from observer

Set your observer location to see the next 7 days of passes ≥ 10°. The values pass through the URL so the page stays shareable.

No JS? Fill the form by hand. The geolocation button needs JavaScript.